Location: Akhmadzhi
(42.0553°N, 44.4782°E)
Time: 01:35:12
(UTC+00:00)

Daily predictions for brighter satellites

Satellite Brightness Start Highest point End
(mag) Time Altitude Azimuth Time Altitude Azimuth Time Altitude Azimuth
BREEZE-M DEB (TANK) 3.1 00:07:56 37° NNE 00:08:04 38° NE 00:10:54 10° ESE
X-37B 1.4 00:09:02 45° NNW 00:09:20 46° N 00:12:25 10° ENE
Resurs 1-4 Rocket 3.8 00:07:20 10° NNW 00:10:41 17° WNW 00:11:25 17° WNW
Cosmos 1937 Rocket 4.4 00:10:08 29° W 00:11:03 31° WNW 00:15:38 10° N
Cosmos 1656 Rocket 4.4 00:08:20 20° S 00:11:49 47° ESE 00:17:01 10° NE
Sich 1 Rocket 3.8 00:10:59 10° NNW 00:15:27 52° W 00:16:29 43° SW
Cosmos 1674 Rocket 3.8 00:16:15 25° S 00:18:42 69° E 00:23:06 10° NNE
ARIANE 5 R/B 2.5 00:17:09 10° NNE 00:22:25 87° WNW 00:25:34 25° SSW
Cosmos 1733 3.1 00:20:53 10° NNW 00:24:37 62° W 00:25:40 42° SSW
SL-08 R/B 3.3 00:19:54 10° SSE 00:24:48 86° WSW 00:29:39 10° NNW
Cosmos 1766 3.2 00:22:24 10° NNW 00:26:23 72° W 00:28:30 26° S
Okean 2 4.2 00:23:15 14° SSE 00:26:39 51° E 00:30:42 10° NNE
SL-24 R/B - RUBIN 2 4.3 00:23:23 10° NNW 00:28:52 67° NE 00:33:40 10° SE
Cosmos 1727 Rocket 4.0 00:24:39 14° S 00:30:07 88° E 00:36:26 10° N
CZ-2D R/B 4.2 00:29:32 10° NNW 00:31:50 13° WNW 00:33:21 11° WNW
NOSS 3-4 (A) 4.2 00:25:02 10° NW 00:31:50 45° WSW 00:39:16 10° S
NOSS 3-4 (C) 4.1 00:25:09 10° NW 00:31:56 45° WSW 00:39:24 10° S
Meteor 1-22 Rocket 4.2 00:29:11 10° N 00:34:52 89° W 00:40:46 10° S
CZ-4C R/B 3.8 00:29:24 10° WNW 00:35:44 28° WSW 00:42:37 10° SSW
SL-16 R/B 4.3 00:36:28 13° W 00:36:28 13° W 00:38:32 10° WNW
IRS-P3 4.4 00:32:51 10° N 00:38:02 50° WNW 00:41:02 24° SW
Spot 4 Rocket 4.1 00:33:36 10° NNE 00:38:48 82° ESE 00:43:31 12° SSW
ADEOS II 3.5 00:35:48 10° NNW 00:39:39 21° WNW 00:41:22 18° W
Cosmos 2082 Rocket 4.2 00:37:54 10° WNW 00:38:00 10° WNW 00:38:00 10° WNW
BREEZE-M DEB (TANK) 4.4 00:40:01 11° S 00:42:06 15° SSE 00:43:46 10° ESE
Cosmos 2298 Rocket 4.1 00:39:01 24° SW 00:42:14 64° WNW 00:47:31 10° NNE
CZ-2D R/B 3.4 00:38:36 10° N 00:42:46 70° WNW 00:45:36 20° SSW
Cosmos 1805 4.2 00:41:06 10° NNW 00:44:28 28° W 00:45:02 27° WSW
ADEOS Rocket 3.8 00:41:44 18° SSW 00:45:51 36° W 00:52:19 10° NNW
ATLAS 2AS CENTAUR R/B 2.8 00:39:07 10° NW 00:46:11 57° WSW 00:52:41 10° SSE
Cosmos 1461 3.9 00:43:17 14° S 00:47:12 50° ESE 00:51:44 10° NE
Cosmos 1726 2.8 00:46:55 10° N 00:50:35 56° E 00:54:14 10° SSE
Cosmos 1470 2.9 00:49:04 10° N 00:52:56 76° E 00:56:48 10° SSE
GP-B 3.3 00:50:28 10° N 00:54:54 75° E 00:59:20 10° S
Cosmos 1943 Rocket 3.4 00:51:58 18° W 00:55:04 28° NW 00:59:53 10° N
CZ-4B R/B 4.1 00:51:32 10° N 00:55:53 36° WNW 00:58:49 18° SW
Cosmos 1125 Rocket 3.6 00:52:50 17° SSW 00:56:57 65° WNW 01:02:12 10° NNE
SL-4 R/B 3.8 00:58:28 18° SW 00:58:28 18° SW 01:01:04 10° S
IDEFIX/ARIANE 42P 3.7 00:55:06 10° N 00:59:26 27° WNW 01:02:23 16° WSW
Cosmos 1707 2.9 00:55:56 10° S 00:59:46 73° E 01:03:37 10° NNE
ALOS 3.2 00:55:36 10° NNE 01:00:08 48° E 01:04:38 10° S
Cosmos 2151 Rocket 4.4 00:59:08 10° NNW 01:03:06 31° W 01:06:37 12° SSW
Okean 2 Rocket 4.4 01:03:34 10° NW 01:06:54 21° W 01:08:55 16° WSW
Cosmos 1975 Rocket 3.7 01:05:55 10° S 01:10:17 60° E 01:14:40 10° NNE
IRAS Rocket 4.2 01:04:57 10° S 01:10:26 74° WSW 01:16:00 10° NNW
USA 305 4.0 01:07:06 10° NW 01:11:15 46° NNE 01:15:23 10° ESE
USA 234 4.1 01:07:56 10° NE 01:13:59 41° NNW 01:20:01 10° W
Cosmos 1400 Rocket 3.0 01:12:28 10° NNW 01:16:29 52° W 01:20:30 10° S
CZ-2C R/B 2.5 01:12:58 10° N 01:17:44 62° WNW 01:22:38 10° SSW
Cosmos 1725 Rocket 4.5 01:11:33 10° N 01:17:51 67° E 01:24:05 10° SSE
Meteor 1-21 4.4 01:13:53 10° SSW 01:19:35 62° WNW 01:25:22 10° N
Cosmos 44 3.6 01:14:23 10° NW 01:19:42 56° WSW 01:24:46 10° SSE
CZ-4C R/B 4.5 01:17:04 10° SE 01:20:21 41° ENE 01:23:35 10° N
RESURS DK-1 3.1 01:18:03 10° NNW 01:22:10 59° ENE 01:26:16 10° SE
Okean 1 Rocket 3.7 01:21:43 10° NNW 01:25:50 36° W 01:29:52 10° SSW
Cosmos 2369 Rocket 3.3 01:23:05 11° WSW 01:27:39 28° NW 01:32:26 10° N
ISS -1.0 01:26:19 10° SSE 01:27:54 13° SE 01:29:29 10° ESE
Cosmos 1802 Rocket 4.0 01:21:57 10° N 01:28:11 74° W 01:34:18 10° S
USA 306 3.5 01:25:05 10° NW 01:29:21 60° NE 01:33:36 10° ESE
Cosmos 1833 4.3 01:24:16 10° NNW 01:29:53 59° WSW 01:35:31 10° S
DELTA 2 R/B (1) 4.2 01:25:20 10° W 01:30:23 37° SSW 01:35:27 10° SE
Milstar 3 4.4 01:24:46 10° WSW 01:31:23 31° S 01:41:34 10° SE
SL-27 R/B 2.7 01:28:37 10° NNW 01:31:45 41° WSW 01:34:52 10° S
In-Cosmos 22 4.3 01:32:39 10° SSW 01:38:25 75° W 01:44:10 10° N
Cosmos 1607 4.2 01:34:48 10° SW 01:41:11 67° NW 01:47:40 10° NNE
